User: anonymous   Login
Location: Unspecified
(0.0000°N, 0.0000°E)
Time: 01:05:59
(UTC+00:00)
Language:

STARLINK-34366 - Orbit

View from above orbital plane
View from above orbital plane
View from above satellite
View from above satellite

Ground track
Ground track

The orbit is defined by the following mean orbital elements,

1 64281U          26145.35355751 +.00000000 +00000-0 +21443-2 0 00002
2 64281  53.1569 120.6043 0001032  58.1653 301.9448 15.30301602    02
Epoch (UTC): 25 May 2026 08:29:07
Eccentricity: 0.0001032
inclination: 53.1569°
perigee height: 474 km
apogee height: 476 km
right ascension of ascending node: 120.6043°
argument of perigee: 58.1653°
revolutions per day: 15.30301602
mean anomaly at epoch: 301.9448°

The dashed part of the orbit path shows where the satellite is in the earth's shadow,  

DLR